Home > Weather > Eschweiler > Past weeks

Flag for Germany Past Weather in Eschweiler, North Rhine-Westphalia, Germany — Yesterday and Last 2 Weeks

Now
64 °F

Broken clouds.


Feels Like: 64 °F
Forecast: 60 / 71 °F
Wind: 14 mph from Southwest

Location: Geilenkirchen Airport

Current Time: Jun 30, 2016 at 12:34:45 PM

Latest Report: Jun 30, 2016 at 11:50 AM


Visibility: N/A

Pressure: 29.92 "Hg

Humidity: 78%

Dew Point: 57 °F

Location of EschweilerLocation

Past Weather in Eschweiler — Graph

°F

Eschweiler Temperature Yesterday

Maximum temperature yesterday: 68 °F (at 2:50 PM)
Minimum temperature yesterday: 57 °F (at 7:50 AM)
Average temperature yesterday: 63 °F

High & Low Weather Summary for the Past Weeks

 TemperatureHumidityPressure
High91 °F (Jun 23, 4:50 PM)100% (Jun 16, 1:50 AM)30.24 "Hg (Jun 16, 1:50 AM)
Low48 °F (Jun 16, 2:50 AM)46% (Jun 23, 5:50 PM)29.50 "Hg (Jun 15, 10:50 AM)
Average64 °F80%29.96 "Hg
* Reported Jun 15 10:50 AM — Jun 30 10:50 AM, Eschweiler, Weather by CustomWeather, © 2016

Note: Actual official high and low records may vary slightly from our data, if they occured in-between our weather recording intervals... More about our weather records

Advertising

Eschweiler Weather History for the Previous 24 Hours

Scroll right to see more
 ConditionsComfort  
Time TempWeatherWind HumidityBarometerVisibility
10:50 AM
Thu, Jun 30
63 °FBroken clouds.13 mph77%29.92 "HgN/A
9:50 AM63 °FBroken clouds.13 mph77%29.92 "HgN/A
8:50 AM61 °FBroken clouds.9 mph83%29.89 "HgN/A
7:50 AM61 °FBroken clouds.9 mph83%29.89 "HgN/A
6:50 AM59 °FPartly sunny.7 mph88%29.89 "HgN/A
5:50 AM59 °FPartly cloudy.6 mph88%29.89 "HgN/A
4:50 AM59 °FPartly cloudy.7 mph88%29.86 "HgN/A
3:50 AM61 °FPartly cloudy.6 mph83%29.86 "HgN/A
2:50 AM63 °FLight rain. Partly cloudy.8 mph77%29.86 "HgN/A
1:50 AM61 °FMostly cloudy.7 mph83%29.86 "HgN/A
12:50 AM61 °FLight rain. Partly cloudy.6 mph83%29.86 "HgN/A
11:50 PM
Wed, Jun 29
64 °FLight rain. Partly cloudy.7 mph68%29.89 "HgN/A
10:50 PM64 °FSunny.3 mph64%29.86 "Hg10 mi
3:50 PM68 °FBroken clouds.12 mph53%29.92 "HgN/A
2:50 PM68 °FScattered clouds.17 mph49%29.92 "HgN/A
1:50 PM66 °FBroken clouds.17 mph56%29.95 "HgN/A
12:50 PM64 °FPartly sunny.18 mph60%29.95 "HgN/A
Weather by CustomWeather, © 2016

See weather overviewHow to use our weather pages